Location: La Iglesuela
(40.2328°N, 4.7516°W)
Time: 20:27:25
(UTC+00:00)

Daily predictions for brighter satellites

Satellite Brightness Start Highest point End
(mag) Time Altitude Azimuth Time Altitude Azimuth Time Altitude Azimuth
Meteor 1-13 Rocket 4.3 20:16:41 10° S 20:22:26 86° E 20:28:06 10° N
SL-14 R/B 3.9 20:23:53 10° SSE 20:27:20 35° E 20:30:48 10° NNE
SL-4 R/B 4.2 20:27:15 10° NNW 20:29:57 18° NNE 20:32:48 10° ENE
Cosmos 2333 Rocket 2.7 20:24:46 10° NNW 20:30:22 49° ENE 20:35:55 10° SE
Cosmos 1655 Rocket 4.4 20:26:12 10° SSE 20:32:16 48° E 20:38:21 10° NNE
BlueWalker 3 2.2 20:29:02 10° WSW 20:32:46 71° NW 20:36:31 10° NE
Cosmos 968 Rocket 3.5 20:28:38 10° S 20:33:42 64° ESE 20:38:51 10° NNE
SL-24 R/B 4.0 20:29:17 10° SSE 20:33:44 86° E 20:37:43 10° N
Cosmos 1833 4.2 20:31:35 10° SSW 20:37:10 71° ESE 20:42:46 10° NNE
CZ-4C R/B 3.8 20:33:43 10° NNE 20:37:40 44° E 20:41:30 10° S
Cosmos 1932 4.5 20:32:45 10° SSW 20:39:05 75° ESE 20:45:22 10° NE
ASTRO E2 4.3 20:40:25 10° SW 20:42:34 16° S 20:44:34 11° SSE
CARTOSAT-1 4.5 20:38:31 10° S 20:42:38 48° W 20:46:46 10° NNW
Resurs 01 Rocket 2.7 20:39:55 10° S 20:44:07 44° W 20:48:20 10° NNW
Cosmos 1733 Rocket 3.8 20:40:07 10° N 20:44:13 36° ENE 20:47:58 12° SE
Cosmos 1356 Rocket 3.5 20:40:13 10° S 20:44:20 60° E 20:48:28 10° NNE
Meteor 1-23 Rocket 4.2 20:39:22 10° S 20:45:02 80° E 20:50:48 10° NNE
Cosmos 1850 Rocket 4.4 20:41:18 10° SSW 20:46:29 67° WNW 20:51:40 10° NNE
Cosmos 2322 Rocket 2.3 20:45:21 10° NNW 20:51:04 82° WSW 20:56:45 10° SSE
USA 234 3.8 20:47:03 10° ENE 20:52:51 33° SE 20:58:36 10° S
MOS 1 4.3 20:48:10 10° SSE 20:53:47 79° ENE 20:59:26 10° N
Cosmos 2297 Rocket 4.1 20:53:50 10° ESE 20:55:00 11° E 20:56:10 10° E
Atlas Centaur 2 4.3 20:52:54 10° WSW 20:58:13 21° SSW 21:03:40 11° SSE
CZ-4 R/B 4.2 20:56:43 10° SW 20:58:52 14° W 21:01:02 10° WNW
ARGOS Delta rocket 3.6 20:54:38 10° SSE 20:58:58 73° ENE 21:03:21 10° N
Cosmos 1758 3.2 20:55:14 10° N 20:59:10 72° E 21:02:42 13° SSE
MOS 1 Rocket 4.4 20:58:40 14° SE 21:02:40 36° ENE 21:07:21 10° N
Cosmos 1300 2.4 20:59:36 10° N 21:03:09 78° E 21:06:06 14° SSE
Delta 2 Rocket 4.2 21:04:55 10° SSW 21:07:17 19° SSE 21:07:20 19° SSE
Cosmos 2219 Rocket 2.5 21:01:54 10° NNW 21:07:29 54° ENE 21:11:43 17° SE
ERS-1 Rocket 3.3 21:03:31 15° SE 21:07:31 53° ENE 21:12:24 10° N
Cosmos 1814 Rocket 4.1 21:03:10 10° NNW 21:08:30 66° ENE 21:12:36 17° SSE
Cosmos 2315 Rocket 4.0 21:03:49 10° N 21:10:14 82° E 21:16:22 11° S
Terra 2.2 21:07:31 17° SE 21:10:52 47° ENE 21:15:23 10° N
SPOT 5 2.7 21:09:54 13° S 21:13:45 82° WSW 21:18:15 10° NNW
Meteor 1-4 Rocket 1.9 21:16:04 17° S 21:18:15 79° E 21:21:15 10° NNE
Aureole 3 3.7 21:18:08 11° S 21:22:12 82° E 21:27:34 10° N
Landsat 4 4.3 21:24:23 25° ESE 21:25:41 35° ENE 21:28:50 10° N
Cosmos 2084 Rocket 4.3 21:25:43 24° SE 21:26:52 28° ESE 21:30:29 10° ENE
Okean-O 3.9 21:24:37 10° SSW 21:28:41 37° W 21:32:48 10° NNW
CZ-4C R/B 1.9 21:28:14 15° S 21:31:26 44° ESE 21:36:16 10° NE
SJ 16-02 2.6 21:27:43 10° SW 21:31:47 41° WNW 21:35:54 10° N
SPOT 3 Rocket 3.7 21:30:22 23° SE 21:33:29 59° ENE 21:38:34 10° N
COSMOS 2428 3.4 21:28:32 10° N 21:33:56 42° ENE 21:37:11 22° ESE
Cosmos 1953 2.7 21:31:05 10° N 21:34:44 43° E 21:36:01 31° SE
Cosmos 1455 2.6 21:33:03 10° N 21:36:22 38° ENE 21:37:15 32° ESE
Cosmos 2360 Rocket 3.1 21:31:12 10° NW 21:36:33 44° WSW 21:41:02 14° S
BREEZE-M DEB (TANK) 3.5 21:34:30 10° SW 21:39:51 - ENE 21:36:21 30° SSW
USA 245 3.6 21:34:55 24° S 21:37:20 81° WSW 21:42:18 10° NNW
Spot 2 Rocket 3.5 21:34:54 23° SSE 21:38:04 77° ENE 21:43:10 10° N
Okean O Rocket 4.2 21:35:53 10° SW 21:38:30 16° W 21:41:07 10° NW
ATLAS 2AS CENTAUR R/B 3.1 21:34:16 10° NW 21:40:46 51° WSW 21:45:21 19° S
Cosmos 1703 Rocket 3.7 21:41:35 29° SSE 21:43:37 55° E 21:47:58 10° NNE
Cosmos 1242 Rocket 1.7 21:44:43 63° ESE 21:44:45 63° E 21:47:26 10° NNE
Okean 1-7 3.0 21:42:51 20° S 21:45:46 87° W 21:50:06 10° N
Cosmos 1315 Rocket 3.0 21:44:20 17° SSW 21:47:18 68° W 21:51:18 10° N
SL-23 DEB 4.3 21:48:12 37° SE 21:48:31 37° SE 21:53:12 10° ENE
SeaSat 1 2.5 21:52:49 32° SE 21:55:05 69° ENE 22:00:00 10° NNW
Cosmos 2208 Rocket 4.3 21:51:20 10° N 21:56:24 52° ENE 21:58:30 32° SE
COSMOS 2455 2.7 21:51:06 10° SSW 21:57:05 78° ESE 22:03:09 10° NNE
Landsat 5 3.4 21:56:36 10° NNE 22:00:45 67° ESE 22:02:11 39° S
Cosmos 1408 3.7 22:02:06 23° ENE 22:02:06 23° ENE 22:03:47 10° NNE
Ariane Rocket 3.2 22:00:37 27° S 22:03:23 66° WSW 22:08:28 10° NNW
Cosmos 158 Rocket 4.1 22:00:03 10° NNW 22:05:13 60° ENE 22:07:05 37° SE
SL-4 R/B 2.3 22:05:25 10° NW 22:09:17 58° NNE 22:10:36 38° E
Cosmos 1486 Rocket 3.9 22:08:49 30° S 22:11:25 75° ESE 22:16:37 10° NNE
CENTAUR R/B 3.1 22:11:56 29° ESE 22:12:05 29° ESE 22:17:25 10° NE
Okean 2 4.5 22:09:45 17° SW 22:12:25 40° WNW 22:16:14 10° N
Cosmos 2333 Rocket 4.0 22:09:48 10° NW 22:14:15 23° WSW 22:18:12 12° SSW
NOSS 5 (C) 4.1 22:11:18 10° NW 22:14:26 88° WSW 22:14:29 86° S
Cosmos 2237 Rocket 3.1 22:12:16 10° N 22:17:31 37° ENE 22:19:45 27° ESE
Cosmos 2227 Rocket 3.0 22:18:48 30° ESE 22:19:09 31° ESE 22:24:02 10° NE
Cosmos 2322 4.1 22:24:59 10° NNW 22:30:30 55° WSW 22:32:34 36° SSW
Cosmos 1980 4.1 22:26:25 10° NNW 22:31:57 51° ENE 22:33:48 37° ESE
Cosmos 2242 Rocket 3.6 22:31:20 58° SE 22:31:59 68° E 22:36:32 10° NNE
Cosmos 1354 Rocket 4.2 22:31:07 47° SE 22:31:59 52° ESE 22:37:08 10° NNE
Cosmos 1709 Rocket 4.0 22:33:28 40° SSE 22:35:47 68° E 22:42:05 10° NNE
USA 234 3.6 22:29:36 10° NE 22:36:06 68° NW 22:42:33 10° WSW
Cosmos 2297 Rocket 2.1 22:35:31 34° SSW 22:38:06 88° ESE 22:43:47 10° NNE
Cosmos 1782 Rocket 3.7 22:42:29 10° NNW 22:46:45 61° W 22:47:21 55° SW
Cosmos 371 Rocket 3.8 22:45:02 28° SW 22:47:19 55° WNW 22:52:04 10° N
Terra 4.0 22:46:13 12° SW 22:48:40 17° W 22:51:46 10° NW
Cosmos 2219 Rocket 4.0 22:46:53 10° NW 22:50:56 20° W 22:53:26 16° SW
Cosmos 2219 4.2 22:51:46 30° E 22:51:46 30° E 22:56:17 10° NE
USA 281 3.7 22:50:46 33° ESE 22:53:26 52° ENE 22:59:47 10° NNW
Cosmos 1300 Rocket 3.7 22:49:27 10° NNW 22:53:43 62° W 22:54:07 59° SW
Meteor 1-24 Rocket 3.7 22:52:47 53° SSE 22:54:04 73° E 22:59:38 10° NNE
Cosmos 1703 3.4 22:55:32 65° N 22:55:32 65° N 22:58:44 10° N
Cosmos 773 Rocket 3.8 22:51:05 10° NNW 22:56:16 90° S 22:57:07 63° SSE
ARIANE 5 R/B 2.5 22:57:21 70° E 22:57:30 71° ENE 23:01:51 10° N
PSLV R/B 4.0 22:55:43 10° NNE 22:59:12 62° NE 22:59:12 62° NE
Cosmos 2263 Rocket 3.5 23:01:07 24° E 23:01:07 24° E 23:04:56 10° NE
GP-B 3.9 22:59:41 10° NNW 23:03:51 43° W 23:04:43 38° WSW
Cosmos 1378 Rocket 3.8 23:10:40 57° ENE 23:10:40 57° ENE 23:14:36 10° NNE
Cosmos 1674 Rocket 4.0 23:14:09 49° ENE 23:14:09 49° ENE 23:17:50 10° NNE
COSMOS 2428 4.0 23:13:12 10° NW 23:17:55 27° WSW 23:19:10 25° SW
NOSS 0 Rocket 4.5 23:12:06 10° NW 23:18:00 45° WSW 23:19:23 39° SW
NOSS 3-2 (A) 3.1 23:18:38 58° ESE 23:18:38 58° ESE 23:24:09 10° NE
CZ-4C R/B 4.1 23:16:19 10° W 23:20:05 24° NW 23:24:35 10° NNE
Cosmos 1825 3.6 23:23:13 29° NNE 23:23:13 29° NNE 23:25:06 10° NNE
CZ-3 Stage 3 4.3 22:47:37 10° W 23:22:02 44° SW 23:25:33 37° S
NOSS 3-2 (C) 4.4 23:30:22 27° E 23:30:22 27° E 23:34:03 10° NE
Cosmos 2151 Rocket 3.7 23:27:47 10° N 23:31:48 71° NNE 23:31:48 71° NNE
H-2A R/B 2.6 23:32:47 72° NNW 23:32:47 72° NNW 23:36:35 10° NNW
Cosmos 1892 3.8 23:34:58 38° N 23:34:58 38° N 23:37:14 10° N
Cosmos 2098 Rocket 3.9 23:30:38 10° NNW 23:37:02 67° W 23:38:07 56° SW
Okean 2 Rocket 3.2 23:32:39 10° N 23:36:50 75° NNE 23:36:50 75° NNE
ALOS 2 2.8 23:42:15 67° NE 23:42:15 67° NE 23:46:17 10° N
Cosmos 405 Rocket 4.0 23:41:32 10° NNW 23:44:11 34° WNW 23:44:11 34° WNW
Aureole 1 Rocket 3.8 23:48:39 44° NE 23:48:39 44° NE 23:52:06 10° NNE
SL-4 R/B 4.5 23:44:37 10° W 23:45:19 13° W 23:45:19 13° W
Cosmos 1937 Rocket 4.5 23:48:31 34° E 23:48:31 34° E 23:52:44 10° NE
